Location: Rancho Del Sol Observatory
(38.7214°N, 120.6350°W)
Time: 15:28:25
(UTC-07:00)

Daily predictions for brighter satellites

Satellite Brightness Start Highest point End
(mag) Time Altitude Azimuth Time Altitude Azimuth Time Altitude Azimuth
Meteor 2-15 4.5 19:56:44 10° N 20:02:45 64° E 20:08:44 10° SSE
Cosmos 1892 Rocket 3.6 19:59:21 10° N 20:03:51 78° E 20:08:20 10° S
Cosmos 1455 Rocket 3.1 20:01:20 10° S 20:05:35 61° E 20:09:53 10° NNE
Meteor 2-14 Rocket 4.5 20:00:12 10° S 20:06:19 77° E 20:12:29 10° N
Cosmos 2278 3.7 20:03:15 10° SSW 20:08:55 85° ESE 20:14:39 10° NNE
Meteor 2-15 Rocket 4.5 20:03:22 10° N 20:09:23 61° E 20:15:22 10° SSE
Cosmos 1602 Rocket 4.4 20:08:14 10° NNE 20:12:14 32° ENE 20:16:12 10° SE
Cosmos 1570 Rocket 4.3 20:06:58 10° SSW 20:12:15 77° WNW 20:17:33 10° NNE
Meteor 2-4 Rocket 4.3 20:09:16 10° NNW 20:15:06 67° W 20:20:57 10° S
H-2A R/B 3.3 20:12:12 10° SE 20:15:50 39° ENE 20:19:32 10° N
Resurs 1-3 3.7 20:15:10 10° S 20:19:33 80° W 20:23:58 10° NNW
Lacrosse 5 3.0 20:15:27 10° NNW 20:19:55 30° NE 20:24:05 11° E
Cosmos 1980 Rocket 3.2 20:18:15 10° SSE 20:22:34 23° E 20:26:54 10° NE
Cosmos 2369 3.8 20:17:49 10° SSW 20:23:29 83° WNW 20:29:13 10° NNE
Cosmos 1975 3.1 20:20:35 10° SSE 20:24:29 46° E 20:28:26 10° NNE
Cosmos 2123 Rocket 4.0 20:21:37 10° N 20:27:49 83° E 20:34:00 10° S
CZ-3C R/B 4.3 19:09:17 10° WSW 20:28:55 41° SSW 20:38:25 11° SE
Lacrosse 5 rocket 1.0 20:26:59 10° NW 20:30:44 89° SW 20:33:43 14° SE
ERS-1 Rocket 4.0 20:28:22 13° ESE 20:31:59 28° ENE 20:36:13 10° N
CZ-2D R/B 3.2 20:34:27 10° SSE 20:38:19 86° ENE 20:42:13 10° N
EO 1 Delta rocket 4.0 20:34:51 10° N 20:39:38 84° E 20:45:18 10° S
FENGYUN 3A 3.6 20:34:24 10° SSE 20:39:46 90° NW 20:45:09 10° NNW
CZ-4B DEB 4.5 20:36:59 10° SSE 20:40:36 78° ENE 20:44:14 10° N
CZ-4 DEB 3.9 20:40:10 22° E 20:41:06 25° ENE 20:43:46 10° NNE
Cosmos 1656 3.6 20:36:29 10° SSW 20:42:06 80° ESE 20:47:41 10° NNE
Cosmos 1763 Rocket 4.4 20:39:17 10° SSE 20:43:25 25° E 20:47:32 10° NE
Resurs 01 Rocket 3.5 20:40:20 10° SSW 20:44:16 31° W 20:48:14 10° NW
Cosmos 1500 3.3 20:41:11 10° SSE 20:44:48 49° E 20:48:28 10° NNE
Cosmos 1898 Rocket 3.6 20:43:53 10° N 20:49:07 57° ENE 20:52:54 18° SE
DELTA 2 R/B (1) 3.6 20:44:46 10° W 20:50:19 71° SSW 20:53:52 23° ESE
Cosmos 2227 Rocket 2.9 20:48:03 10° NNW 20:53:34 54° WSW 20:59:02 10° S
Cosmos 1340 4.0 20:52:02 10° NNE 20:55:05 22° ENE 20:55:15 22° ENE
Cosmos 2322 Rocket 4.1 20:58:39 12° ENE 20:58:39 12° ENE 20:59:29 10° ENE
Cosmos 1153 Rocket 4.4 20:51:01 10° S 20:57:13 87° E 21:03:24 10° N
USA 186 2.2 20:55:35 11° S 20:58:30 54° W 21:01:21 10° NNW
OAO 2 Rocket 3.5 20:54:23 10° WSW 20:59:17 57° S 21:01:47 28° ESE
Cosmos 468 Rocket 3.8 20:55:48 10° SSW 21:00:54 83° ESE 21:06:03 10° NNE
OTV 4 2.3 20:58:43 10° WSW 21:00:57 19° SSW 21:01:32 18° S
Cosmos 1939 Rocket 3.4 21:00:58 31° ESE 21:02:20 41° ENE 21:06:16 10° N
ALOS 3.3 21:00:06 10° S 21:04:33 45° W 21:09:03 10° NNW
Cosmos 841 Rocket 3.9 21:03:13 16° SSE 21:06:49 37° ESE 21:11:36 10° NE
Cosmos 1726 Rocket 4.3 21:07:22 31° E 21:07:22 31° E 21:11:15 10° NNE
Cosmos 2297 Rocket 2.8 21:03:07 10° NNW 21:08:39 57° WSW 21:13:58 11° S
Cosmos 1515 3.9 21:06:14 10° NNW 21:10:05 71° W 21:12:43 19° S
Cosmos 1814 Rocket 4.0 21:07:18 10° SSW 21:12:39 89° ESE 21:17:59 10° NNE
Cosmos 1802 Rocket 4.1 21:07:19 10° S 21:13:34 59° E 21:19:51 10° NNE
Cosmos 972 Rocket 4.5 21:11:15 10° NNW 21:17:21 77° ENE 21:21:32 25° SSE
Tiangong 1 1.3 21:19:49 10° WNW 21:22:45 59° N 21:22:45 59° N
Cosmos 1825 Rocket 3.5 21:18:43 10° N 21:23:06 63° E 21:23:59 50° SE
Cosmos 2016 Rocket 4.0 21:19:32 22° SSE 21:23:30 58° E 21:29:33 10° NNE
Cosmos 1743 2.6 21:23:18 36° S 21:24:48 86° E 21:28:45 10° N
ASTEX 1 3.8 21:20:15 10° NNE 21:24:59 40° E 21:25:07 40° E
RESURS DK-1 2.3 21:26:39 10° NNW 21:30:49 82° WSW 21:31:31 60° S
Cosmos 1953 Rocket 3.6 21:29:43 10° N 21:34:09 60° E 21:34:19 60° E
H-2A R/B 2.0 21:35:03 60° ENE 21:35:03 60° ENE 21:39:03 10° N
Cosmos 2173 Rocket 4.1 21:29:17 10° S 21:35:40 82° W 21:42:02 10° N
Cosmos 1697 Rocket 3.8 21:37:15 10° SW 21:42:37 44° WNW 21:48:01 10° N
Envisat 3.1 21:43:51 42° S 21:45:35 74° WSW 21:50:41 10° NNW
Cosmos 967 Rocket 4.4 21:42:59 10° NNW 21:49:21 81° ENE 21:50:51 55° SE
Cosmos 1937 Rocket 4.1 21:45:24 10° NNW 21:50:33 54° WSW 21:52:28 35° SSW
Cosmos 1864 Rocket 4.4 21:50:50 55° SE 21:51:50 63° E 21:57:52 10° NNE
Cosmos 1758 Rocket 3.6 21:48:22 10° N 21:52:16 70° N 21:52:16 70° N
SL-16 R/B 3.1 21:54:57 34° ENE 21:54:57 34° ENE 21:58:25 10° NE
Nimbus 7 Rocket 4.4 21:48:08 10° NNE 21:54:14 88° WNW 21:58:12 23° SSW
ARGOS 3.6 21:57:55 47° ENE 21:57:55 47° ENE 22:02:43 10° N
Cosmos 1842 4.3 21:54:16 10° N 21:56:49 39° N 21:56:49 39° N
deb Chang Zheng 4 3.9 21:54:09 10° N 21:58:35 66° WNW 21:59:15 57° WSW
Cosmos 990 Rocket 4.3 21:56:02 10° NNW 22:01:12 59° WSW 22:02:09 51° SSW
Lacrosse 5 2.4 21:58:11 10° NW 22:03:03 49° SW 22:03:17 48° SW
Tsikada Rocket 3.9 21:57:02 10° N 22:03:27 71° E 22:04:10 65° ESE
SL-19 R/B 4.3 22:00:19 10° NNE 22:04:48 56° NE 22:04:48 56° NE
Cosmos 1980 Rocket 3.2 22:00:45 10° SW 22:06:11 47° WNW 22:11:41 10° N
H-2A R/B 3.5 22:08:08 24° NE 22:08:08 24° NE 22:10:47 10° N
SPOT 5 3.0 22:07:52 72° WSW 22:07:59 72° WSW 22:12:49 10° NNW
Cosmos 1666 4.4 22:10:53 30° NNW 22:10:53 30° NNW 22:12:59 10° N
MetOp-B 4.0 22:09:33 80° SSW 22:09:46 83° WSW 22:15:09 10° NNW
ERS-1 Rocket 4.5 22:08:23 22° SW 22:10:38 31° W 22:15:06 10° NW
Cosmos 2058 Rocket 3.9 22:18:14 51° NW 22:18:14 51° NW 22:22:11 10° N
Cosmos 1816 Rocket 4.4 22:16:01 10° N 22:22:19 78° ENE 22:22:19 78° ENE
Cosmos 1725 Rocket 4.1 22:22:33 53° SW 22:23:58 70° W 22:30:13 10° N
Cosmos 2098 Rocket 4.4 22:22:30 32° SSW 22:25:41 60° W 22:31:25 10° N
SPOT 1/Viking Rocket 3.8 22:26:33 64° NNW 22:26:33 64° NNW 22:30:58 10° NNW
Terra 3.6 22:33:40 24° NNE 22:33:40 24° NNE 22:35:48 10° N
Cosmos 2263 Rocket 3.0 22:28:31 10° NNW 22:32:32 40° NNE 22:32:32 40° NNE
Cosmos 1125 Rocket 4.1 22:32:14 10° NNW 22:36:17 53° NW 22:36:17 53° NW
Cosmos 2322 Rocket 2.6 22:40:22 58° NNW 22:40:22 58° NNW 22:45:13 10° NNE
BREEZE-M DEB (TANK) 3.9 22:33:41 10° W 22:42:57 47° NNW 22:43:19 46° N
Cosmos 2233 Rocket 4.2 22:48:17 67° NW 22:48:17 67° NW 22:53:52 10° N
USA 215 3.7 22:53:25 51° NE 22:53:25 51° NE 22:59:41 10° NW
SL-16 R/B 4.1 23:36:44 24° WNW 23:37:18 24° NW 23:41:52 10° N
H-2A R/B 4.4 23:48:47 18° NW 23:48:47 18° NW 23:50:15 10° NW
Cosmos 2360 Rocket 4.2 23:53:36 24° N 23:53:36 24° N 23:55:58 10° N
